Weather in Slutsk

Belarus     53˚01′39″N   27˚33′07″E
temp.,
°C
wind,
m/s
gust,
m/s
humid.,
%
clouds,
%
prec.,
mm/h
press.,
hPa
HPBL,
m
3 december, thu
thu300:00−3˚se369772 0.2 1026220
03:00−3˚se379780 0.4 1026251
06:00−2˚se4796100 1.0 1025378
09:00−3˚sse499699 1.3 1025310
12:00−1˚se6109393 0.1 1024533
15:00se698697 0.1 1023719
18:00−1˚se51090100 0.0 1023540
21:00−1˚se71292100 0.1 1022481
4 december, fri
fri400:00se6129399 0.0 1021613
03:00se61392100 0.0 1021620
06:00+1˚se71395100 0.0 1019575
09:00+2˚se61396100 0.0 1019551
12:00+2˚se81494100 0.0 1019678
15:00+3˚se71491100 0.0 1019715
18:00+2˚se71590100 0.0 1018707
21:00+3˚se71594100 0.0 1019594
5 december, sat
sat500:00+3˚se81692100 0.0 1019589
03:00+3˚se81692100 0.0 1020570
06:00+3˚se81590100 0.0 1020556
09:00+3˚se7149195 0.0 1021528
12:00+4˚se71389100 0.0 1022630
15:00+4˚se71387100 0.0 1024591
18:00+4˚se7138794 0.0 1024681
21:00+4˚se7138697 0.0 1025696
6 december, sun
sun600:00+3˚se7138699 0.0 1026678
03:00+3˚sse81383100 0.0 1027661
06:00+1˚se7148780 0.0 1027530
09:00se7148749 0.0 1028519
12:00+1˚se814760 0.0 1029611
15:00+2˚se813620 0.0 1029645
18:00−1˚se716570 0.0 1030466
21:00−2˚se716610 0.0 1031455
7 december, mon
mon700:00−2˚ese815600 0.0 1031490
03:00−2˚se814590 0.0 1031543
06:00−3˚se815590 0.0 1030550
09:00−3˚se815650 0.0 1031542
12:00−2˚se814580 0.0 1031590
15:00−2˚se914520 0.0 1030660
18:00−3˚ese815570 0.0 1030566
21:00−4˚se814640 0.0 1031543